Private Wetterstation Sandau
Wetterdaten: Mittwoch, 25.04.2012
Datum Zeit Temp. A. Feuchte A. Luftdruck Regen Wind Richtung Richtung Taupunkt Windchill
25.04.2012 00:01 11,8 C 66 % 998,6 hPa 0,0 l/m 1,8 km/h (1 Bft) S 180 5,7 C 11,8 C
25.04.2012 00:06 11,6 C 66 % 998,4 hPa 0,0 l/m 0,0 km/h (0 Bft) S-SO 157 5,5 C 11,6 C
25.04.2012 00:11 11,6 C 66 % 998,6 hPa 0,0 l/m 0,0 km/h (0 Bft) S-SO 157 5,5 C 11,6 C
25.04.2012 00:16 11,6 C 66 % 998,6 hPa 0,0 l/m 1,1 km/h (1 Bft) S-SO 157 5,5 C 11,6 C
25.04.2012 00:21 11,5 C 66 % 998,6 hPa 0,0 l/m 2,2 km/h (1 Bft) S-SW 202 5,4 C 11,5 C
25.04.2012 00:26 11,5 C 67 % 998,6 hPa 0,0 l/m 1,8 km/h (1 Bft) SO 135 5,6 C 11,5 C
25.04.2012 00:31 11,4 C 67 % 998,6 hPa 0,0 l/m 1,1 km/h (1 Bft) SO 135 5,5 C 11,4 C
25.04.2012 00:36 11,3 C 67 % 998,6 hPa 0,0 l/m 0,0 km/h (0 Bft) S 180 5,4 C 11,3 C
25.04.2012 00:41 11,3 C 67 % 998,6 hPa 0,0 l/m 0,0 km/h (0 Bft) S-SO 157 5,4 C 11,3 C
25.04.2012 00:46 11,2 C 68 % 998,3 hPa 0,0 l/m 1,4 km/h (1 Bft) S 180 5,5 C 11,2 C
25.04.2012 00:51 11,2 C 68 % 998,3 hPa 0,0 l/m 2,9 km/h (1 Bft) S-SW 202 5,5 C 11,2 C
25.04.2012 00:56 11,3 C 68 % 998,4 hPa 0,0 l/m 1,4 km/h (1 Bft) S 180 5,6 C 11,3 C
25.04.2012 01:01 11,2 C 68 % 998,3 hPa 0,0 l/m 3,6 km/h (1 Bft) SW 225 5,5 C 11,2 C
25.04.2012 01:06 11,2 C 68 % 998,2 hPa 0,0 l/m 0,0 km/h (0 Bft) SW 225 5,5 C 11,2 C
25.04.2012 01:11 11,1 C 69 % 998,3 hPa 0,0 l/m 1,4 km/h (1 Bft) SW 225 5,6 C 11,1 C
25.04.2012 01:16 11,1 C 69 % 998,3 hPa 0,0 l/m 0,0 km/h (0 Bft) SW 225 5,6 C 11,1 C
25.04.2012 01:21 11,1 C 69 % 998,3 hPa 0,0 l/m 0,0 km/h (0 Bft) SW 225 5,6 C 11,1 C
25.04.2012 01:26 11,1 C 69 % 998,4 hPa 0,0 l/m 0,0 km/h (0 Bft) SW 225 5,6 C 11,1 C
25.04.2012 01:31 11,0 C 69 % 998,5 hPa 0,0 l/m 0,0 km/h (0 Bft) SW 225 5,5 C 11,0 C
25.04.2012 01:36 10,9 C 69 % 998,5 hPa 0,0 l/m 0,0 km/h (0 Bft) S-SW 202 5,4 C 10,9 C
25.04.2012 01:41 10,9 C 69 % 998,3 hPa 0,0 l/m 0,0 km/h (0 Bft) W-SW 247 5,4 C 10,9 C
25.04.2012 01:46 10,9 C 70 % 998,4 hPa 0,0 l/m 0,0 km/h (0 Bft) W-SW 247 5,6 C 10,9 C
25.04.2012 01:51 10,8 C 69 % 998,4 hPa 0,0 l/m 1,4 km/h (1 Bft) SW 225 5,3 C 10,8 C
25.04.2012 01:56 10,8 C 69 % 998,4 hPa 0,0 l/m 1,4 km/h (1 Bft) W-SW 247 5,3 C 10,8 C
25.04.2012 02:01 10,6 C 70 % 998,4 hPa 0,0 l/m 2,2 km/h (1 Bft) W-SW 247 5,4 C 10,6 C
25.04.2012 02:06 10,5 C 70 % 998,5 hPa 0,0 l/m 6,1 km/h (2 Bft) W 270 5,3 C 10,5 C
25.04.2012 02:11 10,4 C 70 % 998,2 hPa 0,0 l/m 4,7 km/h (1 Bft) W-NW 292 5,2 C 10,4 C
25.04.2012 02:16 10,3 C 71 % 998,3 hPa 0,0 l/m 3,6 km/h (1 Bft) SW 225 5,3 C 10,3 C
25.04.2012 02:21 10,2 C 71 % 998,5 hPa 0,0 l/m 4,3 km/h (1 Bft) SW 225 5,2 C 10,2 C
25.04.2012 02:26 10,1 C 71 % 998,4 hPa 0,0 l/m 4,0 km/h (1 Bft) W-SW 247 5,1 C 10,1 C
25.04.2012 02:31 10,0 C 71 % 998,4 hPa 0,0 l/m 3,6 km/h (1 Bft) W-SW 247 5,0 C 10,0 C
25.04.2012 02:36 9,9 C 71 % 998,5 hPa 0,0 l/m 6,1 km/h (2 Bft) S-SW 202 4,9 C 9,3 C
25.04.2012 02:41 9,9 C 71 % 998,6 hPa 0,0 l/m 5,0 km/h (1 Bft) W 270 4,9 C 9,6 C
25.04.2012 02:46 9,8 C 71 % 998,7 hPa 0,0 l/m 5,8 km/h (2 Bft) W 270 4,8 C 9,3 C
25.04.2012 02:51 9,8 C 71 % 998,6 hPa 0,0 l/m 6,5 km/h (2 Bft) W-SW 247 4,8 C 9,1 C
25.04.2012 02:56 9,6 C 72 % 998,5 hPa 0,0 l/m 4,0 km/h (1 Bft) SW 225 4,8 C 9,6 C
25.04.2012 03:01 9,6 C 72 % 998,7 hPa 0,0 l/m 3,6 km/h (1 Bft) W-SW 247 4,8 C 9,6 C
25.04.2012 03:06 9,5 C 72 % 998,7 hPa 0,0 l/m 6,5 km/h (2 Bft) W-SW 247 4,7 C 8,8 C
25.04.2012 03:11 9,5 C 72 % 998,8 hPa 0,0 l/m 4,0 km/h (1 Bft) W-SW 247 4,7 C 9,5 C
25.04.2012 03:16 9,4 C 72 % 998,9 hPa 0,0 l/m 6,8 km/h (2 Bft) W 270 4,6 C 8,6 C
25.04.2012 03:21 9,3 C 72 % 998,9 hPa 0,0 l/m 4,7 km/h (1 Bft) W-SW 247 4,5 C 9,1 C
25.04.2012 03:26 9,3 C 73 % 998,9 hPa 0,0 l/m 5,0 km/h (1 Bft) W-SW 247 4,7 C 9,0 C
25.04.2012 03:31 9,2 C 73 % 999,0 hPa 0,0 l/m 4,0 km/h (1 Bft) W-SW 247 4,6 C 9,2 C
25.04.2012 03:36 9,2 C 73 % 999,0 hPa 0,0 l/m 4,7 km/h (1 Bft) W 270 4,6 C 8,9 C
25.04.2012 03:41 9,1 C 73 % 999,1 hPa 0,0 l/m 4,7 km/h (1 Bft) W-SW 247 4,5 C 8,8 C
25.04.2012 03:46 9,0 C 73 % 999,1 hPa 0,0 l/m 7,2 km/h (2 Bft) W-SW 247 4,4 C 8,0 C
25.04.2012 03:51 8,9 C 73 % 999,1 hPa 0,0 l/m 6,1 km/h (2 Bft) W 270 4,3 C 8,2 C
25.04.2012 03:56 8,9 C 73 % 999,1 hPa 0,0 l/m 4,7 km/h (1 Bft) W-SW 247 4,3 C 8,6 C
25.04.2012 04:01 8,8 C 73 % 999,1 hPa 0,0 l/m 4,7 km/h (1 Bft) W 270 4,2 C 8,5 C
25.04.2012 04:06 8,7 C 73 % 999,3 hPa 0,0 l/m 4,7 km/h (1 Bft) W-SW 247 4,1 C 8,4 C
25.04.2012 04:11 8,6 C 73 % 999,3 hPa 0,0 l/m 3,6 km/h (1 Bft) W-SW 247 4,0 C 8,6 C
25.04.2012 04:16 8,6 C 74 % 999,4 hPa 0,0 l/m 2,5 km/h (1 Bft) W 270 4,2 C 8,6 C
25.04.2012 04:21 8,5 C 74 % 999,3 hPa 0,0 l/m 0,0 km/h (0 Bft) W 270 4,1 C 8,5 C
25.04.2012 04:26 8,4 C 74 % 999,4 hPa 0,0 l/m 1,8 km/h (1 Bft) W-NW 292 4,0 C 8,4 C
25.04.2012 04:31 8,3 C 74 % 999,5 hPa 0,0 l/m 2,9 km/h (1 Bft) W 270 3,9 C 8,3 C
25.04.2012 04:36 8,3 C 74 % 999,5 hPa 0,0 l/m 4,0 km/h (1 Bft) W 270 3,9 C 8,3 C
25.04.2012 04:41 8,3 C 75 % 999,6 hPa 0,0 l/m 3,2 km/h (1 Bft) W 270 4,1 C 8,3 C
25.04.2012 04:46 8,3 C 75 % 999,6 hPa 0,0 l/m 0,0 km/h (0 Bft) W 270 4,1 C 8,3 C
25.04.2012 04:51 8,3 C 75 % 999,4 hPa 0,0 l/m 4,0 km/h (1 Bft) W-NW 292 4,1 C 8,3 C
25.04.2012 04:56 8,3 C 75 % 999,6 hPa 0,0 l/m 3,2 km/h (1 Bft) W 270 4,1 C 8,3 C
25.04.2012 05:01 8,3 C 76 % 999,5 hPa 0,0 l/m 4,0 km/h (1 Bft) W-SW 247 4,3 C 8,3 C
25.04.2012 05:06 8,3 C 76 % 999,5 hPa 0,0 l/m 3,2 km/h (1 Bft) W 270 4,3 C 8,3 C
25.04.2012 05:11 8,3 C 76 % 999,5 hPa 0,0 l/m 2,2 km/h (1 Bft) W-SW 247 4,3 C 8,3 C
25.04.2012 05:16 8,2 C 76 % 999,5 hPa 0,0 l/m 4,7 km/h (1 Bft) W 270 4,2 C 7,8 C
25.04.2012 05:21 8,3 C 76 % 999,5 hPa 0,0 l/m 2,9 km/h (1 Bft) W-NW 292 4,3 C 8,3 C
25.04.2012 05:26 8,3 C 77 % 999,5 hPa 0,0 l/m 8,3 km/h (2 Bft) W-SW 247 4,5 C 6,9 C
25.04.2012 05:31 8,3 C 77 % 999,5 hPa 0,0 l/m 7,9 km/h (2 Bft) W 270 4,5 C 7,0 C
25.04.2012 05:36 8,3 C 77 % 999,5 hPa 0,0 l/m 2,2 km/h (1 Bft) W 270 4,5 C 8,3 C
25.04.2012 05:41 8,3 C 77 % 999,6 hPa 0,0 l/m 7,2 km/h (2 Bft) SW 225 4,5 C 7,2 C
25.04.2012 05:46 8,3 C 77 % 999,8 hPa 0,0 l/m 4,3 km/h (1 Bft) W-SW 247 4,5 C 8,3 C
25.04.2012 05:51 8,4 C 78 % 999,8 hPa 0,0 l/m 3,2 km/h (1 Bft) W-SW 247 4,8 C 8,4 C
25.04.2012 05:56 8,4 C 78 % 999,5 hPa 0,0 l/m 0,0 km/h (0 Bft) W-NW 292 4,8 C 8,4 C
25.04.2012 06:01 8,4 C 78 % 999,7 hPa 0,0 l/m 6,5 km/h (2 Bft) SW 225 4,8 C 7,5 C
25.04.2012 06:06 8,4 C 78 % 999,7 hPa 0,0 l/m 3,6 km/h (1 Bft) W-SW 247 4,8 C 8,4 C
25.04.2012 06:11 8,5 C 78 % 999,9 hPa 0,0 l/m 13,7 km/h (3 Bft) W-SW 247 4,9 C 6,2 C
25.04.2012 06:16 8,5 C 79 % 999,7 hPa 0,0 l/m 5,8 km/h (2 Bft) W 270 5,1 C 7,8 C
25.04.2012 06:21 8,6 C 79 % 999,8 hPa 0,0 l/m 6,1 km/h (2 Bft) W 270 5,2 C 7,8 C
25.04.2012 06:26 8,6 C 79 % 1000,0 hPa 0,0 l/m 5,4 km/h (1 Bft) W 270 5,2 C 8,0 C
25.04.2012 06:31 8,6 C 79 % 999,9 hPa 0,0 l/m 7,6 km/h (2 Bft) W-SW 247 5,2 C 7,5 C
25.04.2012 06:36 8,7 C 79 % 1000,1 hPa 0,0 l/m 7,9 km/h (2 Bft) W 270 5,3 C 7,5 C
25.04.2012 06:41 8,8 C 79 % 1000,2 hPa 0,0 l/m 7,2 km/h (2 Bft) W 270 5,4 C 7,8 C
25.04.2012 06:46 8,8 C 79 % 1000,2 hPa 0,0 l/m 7,2 km/h (2 Bft) W-SW 247 5,4 C 7,8 C
25.04.2012 06:51 8,8 C 79 % 1000,3 hPa 0,0 l/m 4,7 km/h (1 Bft) W 270 5,4 C 8,5 C
25.04.2012 06:56 8,9 C 79 % 1000,2 hPa 0,0 l/m 9,0 km/h (2 Bft) W-SW 247 5,5 C 7,5 C
25.04.2012 07:01 8,9 C 79 % 1000,4 hPa 0,0 l/m 4,0 km/h (1 Bft) W 270 5,5 C 8,9 C
25.04.2012 07:06 8,9 C 79 % 1000,5 hPa 0,0 l/m 8,3 km/h (2 Bft) W-SW 247 5,5 C 7,7 C
25.04.2012 07:11 8,9 C 79 % 1000,4 hPa 0,0 l/m 6,1 km/h (2 Bft) W-SW 247 5,5 C 8,2 C
25.04.2012 07:16 9,0 C 79 % 1000,5 hPa 0,0 l/m 7,2 km/h (2 Bft) W-SW 247 5,6 C 8,0 C
25.04.2012 07:21 9,1 C 79 % 1000,8 hPa 0,0 l/m 2,5 km/h (1 Bft) W-SW 247 5,7 C 9,1 C
25.04.2012 07:26 9,2 C 79 % 1000,6 hPa 0,0 l/m 8,3 km/h (2 Bft) W-SW 247 5,8 C 8,0 C
25.04.2012 07:31 9,2 C 78 % 1000,9 hPa 0,0 l/m 5,0 km/h (1 Bft) W-NW 292 5,6 C 8,8 C
25.04.2012 07:36 9,3 C 78 % 1000,7 hPa 0,0 l/m 11,5 km/h (2 Bft) W-SW 247 5,7 C 7,5 C
25.04.2012 07:41 9,3 C 78 % 1000,8 hPa 0,0 l/m 13,7 km/h (3 Bft) W-SW 247 5,7 C 7,2 C
25.04.2012 07:46 9,3 C 78 % 1000,9 hPa 0,0 l/m 4,7 km/h (1 Bft) W 270 5,7 C 9,1 C
25.04.2012 07:51 9,3 C 78 % 1001,0 hPa 0,0 l/m 16,2 km/h (3 Bft) W 270 5,7 C 6,9 C
25.04.2012 07:56 9,3 C 78 % 1001,2 hPa 0,0 l/m 12,2 km/h (2 Bft) W-SW 247 5,7 C 7,4 C
25.04.2012 08:01 9,4 C 78 % 1001,1 hPa 0,0 l/m 13,7 km/h (3 Bft) W-SW 247 5,8 C 7,3 C
25.04.2012 08:06 9,4 C 78 % 1001,2 hPa 0,0 l/m 14,4 km/h (3 Bft) SW 225 5,8 C 7,3 C
25.04.2012 08:11 9,5 C 78 % 1001,3 hPa 0,0 l/m 6,5 km/h (2 Bft) W 270 5,9 C 8,8 C
25.04.2012 08:16 9,6 C 78 % 1001,2 hPa 0,0 l/m 14,8 km/h (3 Bft) W 270 6,0 C 7,4 C
25.04.2012 08:21 9,6 C 78 % 1001,5 hPa 0,0 l/m 16,6 km/h (3 Bft) W-SW 247 6,0 C 7,2 C
25.04.2012 08:26 9,8 C 78 % 1001,4 hPa 0,0 l/m 14,8 km/h (3 Bft) W 270 6,1 C 7,7 C
25.04.2012 08:31 9,9 C 78 % 1001,6 hPa 0,0 l/m 12,6 km/h (3 Bft) SW 225 6,2 C 8,1 C
25.04.2012 08:36 9,9 C 78 % 1001,6 hPa 0,0 l/m 23,0 km/h (4 Bft) W-SW 247 6,2 C 7,0 C
25.04.2012 08:41 9,9 C 77 % 1001,6 hPa 0,0 l/m 7,6 km/h (2 Bft) W-SW 247 6,1 C 9,0 C
25.04.2012 08:46 9,9 C 77 % 1001,8 hPa 0,0 l/m 14,4 km/h (3 Bft) W-SW 247 6,1 C 7,9 C
25.04.2012 08:51 10,1 C 77 % 1001,7 hPa 0,0 l/m 13,7 km/h (3 Bft) SW 225 6,3 C 10,1 C
25.04.2012 08:56 10,1 C 77 % 1001,8 hPa 0,0 l/m 16,6 km/h (3 Bft) SW 225 6,3 C 10,1 C
25.04.2012 09:01 10,1 C 77 % 1001,9 hPa 0,0 l/m 12,6 km/h (3 Bft) W-NW 292 6,3 C 10,1 C
25.04.2012 09:06 10,3 C 77 % 1002,0 hPa 0,0 l/m 7,6 km/h (2 Bft) W-SW 247 6,4 C 10,3 C
25.04.2012 09:11 10,4 C 77 % 1002,1 hPa 0,0 l/m 11,9 km/h (2 Bft) W-SW 247 6,5 C 10,4 C
25.04.2012 09:16 10,4 C 76 % 1002,2 hPa 0,0 l/m 16,6 km/h (3 Bft) W-SW 247 6,4 C 10,4 C
25.04.2012 09:21 10,5 C 75 % 1002,2 hPa 0,0 l/m 11,2 km/h (2 Bft) W 270 6,3 C 10,5 C
25.04.2012 09:26 10,5 C 75 % 1002,2 hPa 0,0 l/m 22,7 km/h (4 Bft) W 270 6,3 C 10,5 C
25.04.2012 09:31 10,6 C 75 % 1002,2 hPa 0,0 l/m 7,9 km/h (2 Bft) W 270 6,4 C 10,6 C
25.04.2012 09:36 10,8 C 75 % 1002,2 hPa 0,0 l/m 11,2 km/h (2 Bft) W-SW 247 6,5 C 10,8 C
25.04.2012 09:41 10,9 C 75 % 1002,2 hPa 0,0 l/m 11,5 km/h (2 Bft) W 270 6,6 C 10,9 C
25.04.2012 09:46 11,1 C 74 % 1002,3 hPa 0,0 l/m 13,3 km/h (3 Bft) W-SW 247 6,6 C 11,1 C
25.04.2012 09:51 11,3 C 73 % 1002,4 hPa 0,0 l/m 12,2 km/h (2 Bft) W-NW 292 6,6 C 11,3 C
25.04.2012 09:56 11,5 C 73 % 1002,5 hPa 0,0 l/m 17,6 km/h (3 Bft) W 270 6,8 C 11,5 C
25.04.2012 10:01 11,6 C 71 % 1002,6 hPa 0,0 l/m 3,6 km/h (1 Bft) W-NW 292 6,5 C 11,6 C
25.04.2012 10:06 11,7 C 71 % 1002,7 hPa 0,0 l/m 11,2 km/h (2 Bft) W-NW 292 6,6 C 11,7 C
25.04.2012 10:11 11,9 C 71 % 1002,5 hPa 0,0 l/m 17,6 km/h (3 Bft) W 270 6,8 C 11,9 C
25.04.2012 10:16 11,8 C 71 % 1002,6 hPa 0,0 l/m 13,0 km/h (3 Bft) W 270 6,7 C 11,8 C
25.04.2012 10:21 11,8 C 71 % 1002,7 hPa 0,0 l/m 19,1 km/h (3 Bft) W-SW 247 6,7 C 11,8 C
25.04.2012 10:26 11,7 C 71 % 1002,8 hPa 0,0 l/m 14,4 km/h (3 Bft) W 270 6,6 C 11,7 C
25.04.2012 10:31 11,6 C 71 % 1002,9 hPa 0,0 l/m 6,8 km/h (2 Bft) W-SW 247 6,5 C 11,6 C
25.04.2012 10:36 11,6 C 71 % 1003,0 hPa 0,0 l/m 16,9 km/h (3 Bft) W 270 6,5 C 11,6 C
25.04.2012 10:41 11,6 C 71 % 1003,0 hPa 0,0 l/m 11,9 km/h (2 Bft) W-SW 247 6,5 C 11,6 C
25.04.2012 10:46 11,8 C 71 % 1003,0 hPa 0,0 l/m 5,8 km/h (2 Bft) W-NW 292 6,7 C 11,8 C
25.04.2012 10:51 11,9 C 70 % 1003,2 hPa 0,0 l/m 11,5 km/h (2 Bft) W-NW 292 6,6 C 11,9 C
25.04.2012 10:56 11,9 C 69 % 1003,3 hPa 0,0 l/m 11,2 km/h (2 Bft) W-NW 292 6,4 C 11,9 C
25.04.2012 11:01 11,9 C 69 % 1003,3 hPa 0,0 l/m 11,9 km/h (2 Bft) W-NW 292 6,4 C 11,9 C
25.04.2012 11:06 11,9 C 69 % 1003,5 hPa 0,0 l/m 6,1 km/h (2 Bft) W-SW 247 6,4 C 11,9 C
25.04.2012 11:11 12,1 C 69 % 1003,5 hPa 0,0 l/m 2,9 km/h (1 Bft) W-NW 292 6,6 C 12,1 C
25.04.2012 11:16 12,0 C 69 % 1003,3 hPa 0,0 l/m 16,6 km/h (3 Bft) W-SW 247 6,5 C 12,0 C
25.04.2012 11:21 12,2 C 68 % 1003,3 hPa 0,0 l/m 12,2 km/h (2 Bft) W 270 6,5 C 12,2 C
25.04.2012 11:26 12,4 C 67 % 1003,4 hPa 0,0 l/m 3,2 km/h (1 Bft) W-SW 247 6,4 C 12,4 C
25.04.2012 11:31 12,6 C 67 % 1003,5 hPa 0,0 l/m 8,6 km/h (2 Bft) W-SW 247 6,6 C 12,6 C
25.04.2012 11:36 12,9 C 66 % 1003,5 hPa 0,0 l/m 18,0 km/h (3 Bft) NW 315 6,7 C 12,9 C
25.04.2012 11:41 13,1 C 66 % 1003,4 hPa 0,0 l/m 12,2 km/h (2 Bft) W-NW 292 6,9 C 13,1 C
25.04.2012 11:46 13,4 C 65 % 1003,5 hPa 0,0 l/m 19,8 km/h (3 Bft) W-SW 247 7,0 C 13,4 C
25.04.2012 11:51 13,6 C 63 % 1003,5 hPa 0,0 l/m 7,9 km/h (2 Bft) W-NW 292 6,7 C 13,6 C
25.04.2012 11:56 13,6 C 62 % 1003,6 hPa 0,0 l/m 10,8 km/h (2 Bft) W-NW 292 6,5 C 13,6 C
25.04.2012 12:01 13,4 C 62 % 1003,5 hPa 0,0 l/m 16,2 km/h (3 Bft) W-SW 247 6,3 C 13,4 C
25.04.2012 12:06 13,3 C 62 % 1003,7 hPa 0,0 l/m 7,2 km/h (2 Bft) S-SW 202 6,2 C 13,3 C
25.04.2012 12:11 13,3 C 62 % 1003,6 hPa 0,0 l/m 3,6 km/h (1 Bft) W 270 6,2 C 13,3 C
25.04.2012 12:16 13,3 C 63 % 1003,7 hPa 0,0 l/m 7,9 km/h (2 Bft) W 270 6,4 C 13,3 C
25.04.2012 12:21 13,6 C 62 % 1003,6 hPa 0,0 l/m 16,9 km/h (3 Bft) W-SW 247 6,5 C 13,6 C
25.04.2012 12:26 13,9 C 61 % 1003,7 hPa 0,0 l/m 5,0 km/h (1 Bft) W-SW 247 6,5 C 13,9 C
25.04.2012 12:31 14,0 C 61 % 1003,7 hPa 0,0 l/m 11,2 km/h (2 Bft) W 270 6,6 C 14,0 C
25.04.2012 12:36 14,0 C 60 % 1003,7 hPa 0,0 l/m 16,6 km/h (3 Bft) W-SW 247 6,4 C 14,0 C
25.04.2012 12:41 13,9 C 60 % 1003,9 hPa 0,0 l/m 9,4 km/h (2 Bft) NW 315 6,3 C 13,9 C
25.04.2012 12:46 13,6 C 61 % 1004,1 hPa 0,0 l/m 4,7 km/h (1 Bft) W-SW 247 6,2 C 13,6 C
25.04.2012 12:51 13,3 C 62 % 1004,0 hPa 0,0 l/m 10,1 km/h (2 Bft) W-NW 292 6,2 C 13,3 C
25.04.2012 12:56 13,1 C 63 % 1004,2 hPa 0,0 l/m 5,4 km/h (1 Bft) W-SW 247 6,2 C 13,1 C
25.04.2012 13:01 13,2 C 63 % 1004,0 hPa 0,0 l/m 9,7 km/h (2 Bft) W-NW 292 6,3 C 13,2 C
25.04.2012 13:06 13,3 C 63 % 1004,1 hPa 0,0 l/m 4,3 km/h (1 Bft) W-NW 292 6,4 C 13,3 C
25.04.2012 13:11 13,4 C 63 % 1004,2 hPa 0,0 l/m 7,9 km/h (2 Bft) W 270 6,5 C 13,4 C
25.04.2012 13:16 13,3 C 62 % 1004,3 hPa 0,0 l/m 3,6 km/h (1 Bft) W-SW 247 6,2 C 13,3 C
25.04.2012 13:21 13,3 C 63 % 1004,3 hPa 0,0 l/m 5,0 km/h (1 Bft) W-NW 292 6,4 C 13,3 C
25.04.2012 13:26 13,3 C 63 % 1004,1 hPa 0,0 l/m 5,8 km/h (2 Bft) W 270 6,4 C 13,3 C
25.04.2012 13:31 13,4 C 62 % 1004,2 hPa 0,0 l/m 9,4 km/h (2 Bft) W-SW 247 6,3 C 13,4 C
25.04.2012 13:36 13,6 C 62 % 1004,2 hPa 0,0 l/m 5,0 km/h (1 Bft) W-NW 292 6,5 C 13,6 C
25.04.2012 13:41 14,1 C 62 % 1004,2 hPa 0,0 l/m 8,3 km/h (2 Bft) SW 225 6,9 C 14,1 C
25.04.2012 13:46 14,7 C 61 % 1004,1 hPa 0,0 l/m 7,9 km/h (2 Bft) W 270 7,3 C 14,7 C
25.04.2012 13:51 14,9 C 59 % 1004,4 hPa 0,0 l/m 11,2 km/h (2 Bft) NW 315 7,0 C 14,9 C
25.04.2012 13:56 14,9 C 58 % 1004,2 hPa 0,0 l/m 6,1 km/h (2 Bft) W 270 6,7 C 14,9 C
25.04.2012 14:01 15,2 C 58 % 1004,4 hPa 0,0 l/m 9,0 km/h (2 Bft) NW 315 7,0 C 15,2 C
25.04.2012 14:06 15,2 C 58 % 1004,2 hPa 0,0 l/m 10,1 km/h (2 Bft) W-NW 292 7,0 C 15,2 C
25.04.2012 14:11 14,9 C 58 % 1004,4 hPa 0,0 l/m 8,3 km/h (2 Bft) W 270 6,7 C 14,9 C
25.04.2012 14:16 14,9 C 57 % 1004,4 hPa 0,0 l/m 8,3 km/h (2 Bft) W 270 6,5 C 14,9 C
25.04.2012 14:21 14,9 C 57 % 1004,4 hPa 0,0 l/m 11,2 km/h (2 Bft) W-SW 247 6,5 C 14,9 C
25.04.2012 14:26 15,4 C 56 % 1004,5 hPa 0,0 l/m 9,4 km/h (2 Bft) W-NW 292 6,7 C 15,4 C
25.04.2012 14:31 15,6 C 54 % 1004,4 hPa 0,0 l/m 5,0 km/h (1 Bft) W-SW 247 6,3 C 15,6 C
25.04.2012 14:36 15,6 C 54 % 1004,3 hPa 0,0 l/m 8,6 km/h (2 Bft) W 270 6,3 C 15,6 C
25.04.2012 14:41 15,8 C 54 % 1004,4 hPa 0,0 l/m 9,0 km/h (2 Bft) W-NW 292 6,5 C 15,8 C
25.04.2012 14:46 15,9 C 53 % 1004,4 hPa 0,0 l/m 14,8 km/h (3 Bft) W-NW 292 6,3 C 15,9 C
25.04.2012 14:51 15,9 C 52 % 1004,4 hPa 0,0 l/m 7,2 km/h (2 Bft) W-NW 292 6,1 C 15,9 C
25.04.2012 14:56 15,8 C 52 % 1004,4 hPa 0,0 l/m 5,0 km/h (1 Bft) W 270 6,0 C 15,8 C
25.04.2012 15:01 15,8 C 53 % 1004,4 hPa 0,0 l/m 8,3 km/h (2 Bft) W-NW 292 6,2 C 15,8 C
25.04.2012 15:06 15,8 C 52 % 1004,4 hPa 0,0 l/m 8,3 km/h (2 Bft) W-SW 247 6,0 C 15,8 C
25.04.2012 15:11 15,8 C 52 % 1004,4 hPa 0,0 l/m 10,8 km/h (2 Bft) W 270 6,0 C 15,8 C
25.04.2012 15:16 15,8 C 52 % 1004,4 hPa 0,0 l/m 10,1 km/h (2 Bft) SW 225 6,0 C 15,8 C
25.04.2012 15:21 15,8 C 51 % 1004,4 hPa 0,0 l/m 9,7 km/h (2 Bft) W 270 5,7 C 15,8 C
25.04.2012 15:26 15,9 C 51 % 1004,3 hPa 0,0 l/m 9,7 km/h (2 Bft) W 270 5,8 C 15,9 C
25.04.2012 15:31 16,4 C 50 % 1004,4 hPa 0,0 l/m 7,2 km/h (2 Bft) W-SW 247 6,0 C 16,4 C
25.04.2012 15:36 16,9 C 49 % 1004,4 hPa 0,0 l/m 9,4 km/h (2 Bft) W 270 6,1 C 16,9 C
25.04.2012 15:41 17,0 C 48 % 1004,5 hPa 0,0 l/m 8,3 km/h (2 Bft) SW 225 5,9 C 17,0 C
25.04.2012 15:46 16,9 C 47 % 1004,4 hPa 0,0 l/m 7,2 km/h (2 Bft) S-SW 202 5,5 C 16,9 C
25.04.2012 15:51 16,9 C 47 % 1004,4 hPa 0,0 l/m 8,6 km/h (2 Bft) W-SW 247 5,5 C 16,9 C
25.04.2012 15:56 16,9 C 46 % 1004,4 hPa 0,0 l/m 9,4 km/h (2 Bft) SW 225 5,2 C 16,9 C
25.04.2012 16:01 16,7 C 46 % 1004,3 hPa 0,0 l/m 10,1 km/h (2 Bft) W-SW 247 5,0 C 16,7 C
25.04.2012 16:06 16,6 C 46 % 1004,4 hPa 0,0 l/m 10,4 km/h (2 Bft) SW 225 4,9 C 16,6 C
25.04.2012 16:11 16,5 C 46 % 1004,3 hPa 0,0 l/m 10,4 km/h (2 Bft) S-SW 202 4,8 C 16,5 C
25.04.2012 16:16 16,5 C 46 % 1004,4 hPa 0,0 l/m 11,2 km/h (2 Bft) S-SW 202 4,8 C 16,5 C
25.04.2012 16:21 16,5 C 46 % 1004,4 hPa 0,0 l/m 6,8 km/h (2 Bft) S-SW 202 4,8 C 16,5 C
25.04.2012 16:26 16,6 C 46 % 1004,3 hPa 0,0 l/m 4,3 km/h (1 Bft) W-SW 247 4,9 C 16,6 C
25.04.2012 16:31 16,7 C 46 % 1004,3 hPa 0,0 l/m 16,2 km/h (3 Bft) W-SW 247 5,0 C 16,7 C
25.04.2012 16:36 16,9 C 45 % 1004,3 hPa 0,0 l/m 14,8 km/h (3 Bft) W 270 4,9 C 16,9 C
25.04.2012 16:41 17,1 C 45 % 1004,4 hPa 0,0 l/m 10,8 km/h (2 Bft) W 270 5,1 C 17,1 C
25.04.2012 16:46 17,2 C 45 % 1004,4 hPa 0,0 l/m 8,3 km/h (2 Bft) SW 225 5,2 C 17,2 C
25.04.2012 16:51 17,3 C 45 % 1004,4 hPa 0,0 l/m 7,6 km/h (2 Bft) SW 225 5,3 C 17,3 C
25.04.2012 16:56 17,5 C 44 % 1004,2 hPa 0,0 l/m 15,8 km/h (3 Bft) S 180 5,1 C 17,5 C
25.04.2012 17:01 17,5 C 44 % 1004,3 hPa 0,0 l/m 10,1 km/h (2 Bft) SW 225 5,1 C 17,5 C
25.04.2012 17:06 17,4 C 43 % 1004,2 hPa 0,0 l/m 5,8 km/h (2 Bft) S 180 4,7 C 17,4 C
25.04.2012 17:11 17,3 C 44 % 1004,3 hPa 0,0 l/m 4,0 km/h (1 Bft) S 180 4,9 C 17,3 C
25.04.2012 17:16 17,1 C 44 % 1004,1 hPa 0,0 l/m 6,8 km/h (2 Bft) W 270 4,8 C 17,1 C
25.04.2012 17:21 17,1 C 44 % 1004,1 hPa 0,0 l/m 10,8 km/h (2 Bft) SW 225 4,8 C 17,1 C
25.04.2012 17:26 17,2 C 43 % 1004,1 hPa 0,0 l/m 13,0 km/h (3 Bft) SW 225 4,5 C 17,2 C
25.04.2012 17:31 17,3 C 43 % 1004,1 hPa 0,0 l/m 10,4 km/h (2 Bft) S 180 4,6 C 17,3 C
25.04.2012 17:36 17,3 C 43 % 1004,0 hPa 0,0 l/m 5,0 km/h (1 Bft) S-SO 157 4,6 C 17,3 C
25.04.2012 17:41 17,5 C 43 % 1004,0 hPa 0,0 l/m 7,9 km/h (2 Bft) S-SO 157 4,8 C 17,5 C
25.04.2012 17:46 17,6 C 42 % 1003,9 hPa 0,0 l/m 5,0 km/h (1 Bft) S-SO 157 4,5 C 17,6 C
25.04.2012 17:51 17,6 C 43 % 1004,0 hPa 0,0 l/m 18,7 km/h (3 Bft) S-SW 202 4,9 C 17,6 C
25.04.2012 17:56 17,4 C 42 % 1004,0 hPa 0,0 l/m 12,2 km/h (2 Bft) S-SO 157 4,4 C 17,4 C
25.04.2012 18:01 17,1 C 43 % 1004,1 hPa 0,0 l/m 3,6 km/h (1 Bft) SO 135 4,4 C 17,1 C
25.04.2012 18:06 16,9 C 44 % 1004,0 hPa 0,0 l/m 9,0 km/h (2 Bft) S-SW 202 4,6 C 16,9 C
25.04.2012 18:11 16,7 C 43 % 1004,0 hPa 0,0 l/m 7,2 km/h (2 Bft) S 180 4,1 C 16,7 C
25.04.2012 18:16 16,7 C 43 % 1003,9 hPa 0,0 l/m 4,7 km/h (1 Bft) S 180 4,1 C 16,7 C
25.04.2012 18:21 16,6 C 43 % 1004,1 hPa 0,0 l/m 11,9 km/h (2 Bft) S-SO 157 4,0 C 16,6 C
25.04.2012 18:26 16,6 C 43 % 1004,0 hPa 0,0 l/m 5,0 km/h (1 Bft) S-SO 157 4,0 C 16,6 C
25.04.2012 18:31 16,5 C 43 % 1003,9 hPa 0,0 l/m 5,4 km/h (1 Bft) S 180 3,9 C 16,5 C
25.04.2012 18:36 16,5 C 43 % 1003,9 hPa 0,0 l/m 8,6 km/h (2 Bft) S-SO 157 3,9 C 16,5 C
25.04.2012 18:41 16,4 C 43 % 1003,9 hPa 0,0 l/m 5,0 km/h (1 Bft) S 180 3,8 C 16,4 C
25.04.2012 18:46 16,4 C 43 % 1003,8 hPa 0,0 l/m 5,8 km/h (2 Bft) S 180 3,8 C 16,4 C
25.04.2012 18:51 16,4 C 43 % 1003,9 hPa 0,0 l/m 11,2 km/h (2 Bft) S 180 3,8 C 16,4 C
25.04.2012 18:56 16,3 C 43 % 1004,1 hPa 0,0 l/m 4,7 km/h (1 Bft) O-SO 112 3,7 C 16,3 C
25.04.2012 19:01 16,2 C 44 % 1004,1 hPa 0,0 l/m 8,6 km/h (2 Bft) SW 225 3,9 C 16,2 C
25.04.2012 19:06 16,2 C 44 % 1004,0 hPa 0,0 l/m 6,8 km/h (2 Bft) S 180 3,9 C 16,2 C
25.04.2012 19:11 16,2 C 44 % 1004,1 hPa 0,0 l/m 7,2 km/h (2 Bft) SO 135 3,9 C 16,2 C
25.04.2012 19:16 16,1 C 44 % 1004,0 hPa 0,0 l/m 3,6 km/h (1 Bft) S-SO 157 3,8 C 16,1 C
25.04.2012 19:21 16,1 C 45 % 1004,0 hPa 0,0 l/m 6,1 km/h (2 Bft) SO 135 4,2 C 16,1 C
25.04.2012 19:26 15,9 C 45 % 1004,1 hPa 0,0 l/m 2,9 km/h (1 Bft) S-SO 157 4,0 C 15,9 C
25.04.2012 19:31 15,8 C 45 % 1004,0 hPa 0,0 l/m 6,1 km/h (2 Bft) S-SO 157 3,9 C 15,8 C
25.04.2012 19:36 15,8 C 46 % 1004,0 hPa 0,0 l/m 2,9 km/h (1 Bft) SO 135 4,2 C 15,8 C
25.04.2012 19:41 15,6 C 45 % 1004,1 hPa 0,0 l/m 6,5 km/h (2 Bft) S-SW 202 3,7 C 15,6 C
25.04.2012 19:46 15,4 C 46 % 1004,2 hPa 0,0 l/m 5,8 km/h (2 Bft) S-SO 157 3,8 C 15,4 C
25.04.2012 19:51 15,3 C 46 % 1004,1 hPa 0,0 l/m 5,4 km/h (1 Bft) O 90 3,8 C 15,3 C
25.04.2012 19:56 15,0 C 46 % 1004,0 hPa 0,0 l/m 3,2 km/h (1 Bft) O-SO 112 3,5 C 15,0 C
25.04.2012 20:01 14,9 C 46 % 1004,0 hPa 0,0 l/m 4,7 km/h (1 Bft) S-SO 157 3,4 C 14,9 C
25.04.2012 20:06 14,9 C 46 % 1004,3 hPa 0,0 l/m 7,2 km/h (2 Bft) S-SO 157 3,4 C 14,9 C
25.04.2012 20:11 14,9 C 47 % 1004,1 hPa 0,0 l/m 3,2 km/h (1 Bft) SO 135 3,7 C 14,9 C
25.04.2012 20:16 14,8 C 47 % 1004,2 hPa 0,0 l/m 9,0 km/h (2 Bft) SO 135 3,6 C 14,8 C
25.04.2012 20:21 14,6 C 47 % 1004,1 hPa 0,0 l/m 1,8 km/h (1 Bft) S-SO 157 3,4 C 14,6 C
25.04.2012 20:26 14,6 C 47 % 1004,1 hPa 0,0 l/m 4,7 km/h (1 Bft) S-SW 202 3,4 C 14,6 C
25.04.2012 20:31 14,4 C 47 % 1004,1 hPa 0,0 l/m 4,0 km/h (1 Bft) S-SO 157 3,2 C 14,4 C
25.04.2012 20:36 14,4 C 48 % 1004,2 hPa 0,0 l/m 3,6 km/h (1 Bft) SO 135 3,5 C 14,4 C
25.04.2012 20:41 14,3 C 48 % 1004,3 hPa 0,0 l/m 6,8 km/h (2 Bft) S-SO 157 3,4 C 14,3 C
25.04.2012 20:46 14,3 C 48 % 1004,3 hPa 0,0 l/m 2,9 km/h (1 Bft) S 180 3,4 C 14,3 C
25.04.2012 20:51 14,2 C 48 % 1004,3 hPa 0,0 l/m 6,5 km/h (2 Bft) S-SO 157 3,4 C 14,2 C
25.04.2012 20:56 14,1 C 48 % 1004,3 hPa 0,0 l/m 5,4 km/h (1 Bft) S-SO 157 3,3 C 14,1 C
25.04.2012 21:01 14,1 C 48 % 1004,4 hPa 0,0 l/m 7,6 km/h (2 Bft) S-SO 157 3,3 C 14,1 C
25.04.2012 21:06 14,1 C 49 % 1004,5 hPa 0,0 l/m 8,3 km/h (2 Bft) O-SO 112 3,6 C 14,1 C
25.04.2012 21:11 14,1 C 49 % 1004,6 hPa 0,0 l/m 8,3 km/h (2 Bft) S-SO 157 3,6 C 14,1 C
25.04.2012 21:16 14,0 C 49 % 1004,4 hPa 0,0 l/m 5,4 km/h (1 Bft) SO 135 3,5 C 14,0 C
25.04.2012 21:21 13,9 C 49 % 1004,6 hPa 0,0 l/m 4,0 km/h (1 Bft) SO 135 3,4 C 13,9 C
25.04.2012 21:26 13,9 C 49 % 1004,6 hPa 0,0 l/m 10,4 km/h (2 Bft) S-SO 157 3,4 C 13,9 C
25.04.2012 21:31 13,9 C 49 % 1004,5 hPa 0,0 l/m 9,4 km/h (2 Bft) SO 135 3,4 C 13,9 C
25.04.2012 21:36 13,9 C 49 % 1004,6 hPa 0,0 l/m 9,0 km/h (2 Bft) S-SO 157 3,4 C 13,9 C
25.04.2012 21:41 13,9 C 49 % 1004,5 hPa 0,0 l/m 7,2 km/h (2 Bft) S 180 3,4 C 13,9 C
25.04.2012 21:46 13,8 C 49 % 1004,6 hPa 0,0 l/m 2,9 km/h (1 Bft) S-SO 157 3,3 C 13,8 C
25.04.2012 21:51 13,8 C 49 % 1004,6 hPa 0,0 l/m 2,5 km/h (1 Bft) S-SO 157 3,3 C 13,8 C
25.04.2012 21:56 13,8 C 49 % 1004,6 hPa 0,0 l/m 6,1 km/h (2 Bft) S 180 3,3 C 13,8 C
25.04.2012 22:01 13,7 C 50 % 1004,7 hPa 0,0 l/m 9,7 km/h (2 Bft) S-SO 157 3,5 C 13,7 C
25.04.2012 22:06 13,7 C 50 % 1004,7 hPa 0,0 l/m 16,6 km/h (3 Bft) S 180 3,5 C 13,7 C
25.04.2012 22:11 13,6 C 50 % 1004,5 hPa 0,0 l/m 14,4 km/h (3 Bft) S-SO 157 3,4 C 13,6 C
25.04.2012 22:16 13,6 C 50 % 1004,6 hPa 0,0 l/m 10,8 km/h (2 Bft) S-SO 157 3,4 C 13,6 C
25.04.2012 22:21 13,6 C 50 % 1004,5 hPa 0,0 l/m 8,6 km/h (2 Bft) S-SO 157 3,4 C 13,6 C
25.04.2012 22:26 13,6 C 50 % 1004,6 hPa 0,0 l/m 1,1 km/h (1 Bft) O-NO 67 3,4 C 13,6 C
25.04.2012 22:31 13,6 C 50 % 1004,7 hPa 0,0 l/m 7,6 km/h (2 Bft) S-SO 157 3,4 C 13,6 C
25.04.2012 22:36 13,6 C 50 % 1004,6 hPa 0,0 l/m 6,8 km/h (2 Bft) O-SO 112 3,4 C 13,6 C
25.04.2012 22:41 13,6 C 49 % 1004,5 hPa 0,0 l/m 6,5 km/h (2 Bft) S-SO 157 3,1 C 13,6 C
25.04.2012 22:46 13,6 C 49 % 1004,6 hPa 0,0 l/m 10,8 km/h (2 Bft) S 180 3,1 C 13,6 C
25.04.2012 22:51 13,6 C 49 % 1004,6 hPa 0,0 l/m 4,3 km/h (1 Bft) S-SO 157 3,1 C 13,6 C
25.04.2012 22:56 13,6 C 49 % 1004,6 hPa 0,0 l/m 8,3 km/h (2 Bft) S 180 3,1 C 13,6 C
25.04.2012 23:01 13,6 C 49 % 1004,6 hPa 0,0 l/m 9,4 km/h (2 Bft) S-SO 157 3,1 C 13,6 C
25.04.2012 23:06 13,6 C 49 % 1004,6 hPa 0,0 l/m 6,8 km/h (2 Bft) S 180 3,1 C 13,6 C
25.04.2012 23:11 13,6 C 49 % 1004,4 hPa 0,0 l/m 1,8 km/h (1 Bft) SO 135 3,1 C 13,6 C
25.04.2012 23:16 13,6 C 50 % 1004,5 hPa 0,0 l/m 5,8 km/h (2 Bft) SO 135 3,4 C 13,6 C
25.04.2012 23:21 13,5 C 50 % 1004,6 hPa 0,0 l/m 7,2 km/h (2 Bft) O-SO 112 3,3 C 13,5 C
25.04.2012 23:26 13,4 C 50 % 1004,5 hPa 0,0 l/m 6,1 km/h (2 Bft) S-SO 157 3,2 C 13,4 C
25.04.2012 23:31 13,4 C 50 % 1004,5 hPa 0,0 l/m 0,0 km/h (0 Bft) O-SO 112 3,2 C 13,4 C
25.04.2012 23:36 13,3 C 50 % 1004,5 hPa 0,0 l/m 4,0 km/h (1 Bft) SO 135 3,1 C 13,3 C
25.04.2012 23:41 13,2 C 50 % 1004,5 hPa 0,0 l/m 2,2 km/h (1 Bft) SO 135 3,0 C 13,2 C
25.04.2012 23:46 13,1 C 50 % 1004,3 hPa 0,0 l/m 4,7 km/h (1 Bft) O-SO 112 2,9 C 13,1 C
25.04.2012 23:51 13,0 C 50 % 1004,4 hPa 0,0 l/m 9,0 km/h (2 Bft) SO 135 2,8 C 13,0 C
25.04.2012 23:56 12,9 C 50 % 1004,3 hPa 0,0 l/m 4,7 km/h (1 Bft) SO 135 2,7 C 12,9 C
_ Min-Zeit 05:16 17:46 01:06 - 00:06 - - 23:56 06:11
Minimum _ 8,2 C 42 % 998,2 hPa - 0,0 km/h (0 Bft) - - 2,7 C 6,2 C
_ Max-Zeit 17:46 06:16 22:01 00:01 08:36 - - 13:46 17:46
Maximum _ 17,6 C 79 % 1004,7 hPa 0,0 l/m 23,0 km/h
W-SW (4 Bft)
- - 7,3 C 17,6 C
Durchschnitt _ 12,6 C 62 % 1002,3 hPa #0,0 l/m 7,3 km/h (2 Bft) W-SW - 5,1 C 12,4 C
(c) by David Heller